Date String (YYYY-MM-DD hh:mm:ss) UTC,Instrument flags,Ambient pressure (hPa),Sample flow (lpm),Bypass flow (lpm),Sample temperature (°C),Ambient temperature (°C),ASC tube jacket temperature (°C),LED temperature (°C),Box temperature (°C),Sample RH (%),Span deviation,Mass concentration (μg/m³),Mass concentration (μg/m³),Mass concentration (μg/m³)
DateTimeUTC,F1_M11,P_M11,Q1_M11,Q2_M11,T1_M11,T2_M11,T3_M11,T4_M11,T5_M11,U1_M11,ZSPAN_M11,X2_M11,X0_M11,X1_M11
2022-11-29 19:00:00,,0818.2,5.00,0.00,21.6,19.7,00.0,30.7,23.2,09.9,0000.0,0001.95,0003.48,0001.55
2022-11-29 19:01:00,,0818.3,5.01,0.00,21.5,20.0,00.0,30.7,23.2,09.9,0000.0,0001.95,0003.52,0001.51
2022-11-29 19:02:00,,0818.4,5.01,0.00,21.7,21.2,00.0,30.6,23.5,09.9,0000.0,0001.97,0003.50,0001.49
2022-11-29 19:03:00,,0818.4,4.98,0.00,21.8,22.1,00.0,30.6,23.8,09.8,0000.0,0002.00,0003.62,0001.47
2022-11-29 19:04:00,,0818.4,5.00,0.00,21.9,21.8,00.0,30.7,23.8,09.9,0000.0,0002.01,0003.85,0001.45
2022-11-29 19:05:00,,0818.4,4.99,0.00,21.8,21.3,00.0,30.7,23.7,09.9,0000.0,0002.01,0004.21,0001.44
2022-11-29 19:06:00,,0818.4,5.01,0.00,21.8,20.7,00.0,30.7,23.6,09.9,0000.0,0002.03,0004.22,0001.44
2022-11-29 19:07:00,,0818.4,5.00,0.00,21.8,20.3,00.0,30.8,23.4,10.0,0000.0,0002.02,0004.15,0001.44
2022-11-29 19:08:00,,0818.2,5.00,0.00,21.7,20.1,00.0,30.7,23.3,10.0,0000.0,0002.04,0004.19,0001.44
2022-11-29 19:09:00,,0818.1,5.00,0.00,21.7,20.0,00.0,30.7,23.3,10.1,0000.0,0002.04,0004.11,0001.46
2022-11-29 19:10:00,,0818.0,4.99,0.00,21.6,19.8,00.0,30.7,23.3,10.2,0000.0,0002.00,0003.89,0001.49
2022-11-29 19:11:00,,0818.0,5.01,0.00,21.6,19.7,00.0,30.7,23.2,10.3,0000.0,0001.99,0003.85,0001.51
2022-11-29 19:12:00,,0818.1,5.00,0.00,21.6,19.6,00.0,30.7,23.1,10.4,0000.0,0001.96,0003.73,0001.53
2022-11-29 19:13:00,,0818.2,5.00,0.00,21.5,19.5,00.0,30.7,23.1,10.5,0000.0,0001.96,0003.71,0001.53
2022-11-29 19:14:00,,0818.2,5.00,0.00,21.5,19.5,00.0,30.6,23.1,10.7,0000.0,0001.95,0003.58,0001.54
2022-11-29 19:15:00,,0818.4,5.00,0.00,21.4,19.5,00.0,30.6,23.0,10.8,0000.0,0001.92,0004.50,0001.54
2022-11-29 19:16:00,,0818.4,4.99,0.00,21.4,19.4,00.0,30.6,22.9,10.8,0000.0,0001.94,0005.23,0001.55
2022-11-29 19:17:00,,0818.3,5.00,0.00,21.4,19.7,00.0,30.5,23.0,10.8,0000.0,0001.90,0005.13,0001.55
2022-11-29 19:18:00,,0818.3,5.01,0.00,21.5,21.0,00.0,30.4,23.3,10.7,0000.0,0001.92,0005.16,0001.55
2022-11-29 19:19:00,,0818.3,5.00,0.00,21.6,21.9,00.0,30.4,23.6,10.6,0000.0,0001.94,0005.22,0001.56
2022-11-29 19:20:00,,0818.4,4.99,0.00,21.6,21.4,00.0,30.5,23.5,10.6,0000.0,0001.95,0005.23,0001.56
2022-11-29 19:21:00,,0818.4,5.00,0.00,21.6,21.0,00.0,30.5,23.4,10.6,0000.0,0001.99,0005.35,0001.56
2022-11-29 19:22:00,,0818.4,5.00,0.00,21.6,20.5,00.0,30.6,23.3,10.6,0000.0,0002.02,0005.43,0001.56
2022-11-29 19:23:00,,0818.4,5.00,0.00,21.5,20.2,00.0,30.5,23.2,10.6,0000.0,0002.04,0005.48,0001.55
2022-11-29 19:24:00,,0818.4,5.00,0.00,21.5,20.0,00.0,30.5,23.1,10.6,0000.0,0002.04,0006.18,0001.55
2022-11-29 19:25:00,,0818.4,5.01,0.00,21.5,19.8,00.0,30.5,23.1,10.6,0000.0,0002.03,0006.12,0001.55
2022-11-29 19:26:00,,0818.4,5.01,0.00,21.4,19.6,00.0,30.5,23.0,10.7,0000.0,0002.03,0005.36,0001.56
2022-11-29 19:27:00,,0818.4,5.00,0.00,21.4,19.5,00.0,30.5,22.9,10.7,0000.0,0002.04,0003.89,0001.57
2022-11-29 19:28:00,,0818.4,5.00,0.00,21.3,19.5,00.0,30.5,22.9,10.7,0000.0,0002.06,0003.94,0001.57
2022-11-29 19:29:00,,0818.4,4.99,0.00,21.3,19.5,00.0,30.4,22.9,10.7,0000.0,0002.02,0003.83,0001.58
2022-11-29 19:30:00,,0818.4,4.99,0.00,21.3,19.4,00.0,30.4,22.9,10.7,0000.0,0001.99,0003.84,0001.57
2022-11-29 19:31:00,,0818.4,5.00,0.00,21.3,19.4,00.0,30.4,22.9,10.7,0000.0,0002.01,0003.94,0001.58
2022-11-29 19:32:00,,0818.4,5.01,0.00,21.2,19.4,00.0,30.4,22.9,10.8,0000.0,0002.02,0004.10,0001.59
2022-11-29 19:33:00,,0818.4,5.01,0.00,21.2,19.7,00.0,30.4,22.9,10.8,0000.0,0002.00,0003.97,0001.59
2022-11-29 19:34:00,,0818.4,5.00,0.00,21.3,20.9,00.0,30.3,23.2,10.8,0000.0,0002.00,0003.97,0001.59
2022-11-29 19:35:00,,0818.4,4.99,0.00,21.5,21.7,00.0,30.3,23.4,10.8,0000.0,0001.99,0003.33,0001.61
2022-11-29 19:36:00,,0818.4,5.00,0.00,21.5,21.4,00.0,30.4,23.4,10.8,0000.0,0001.96,0003.17,0001.60
2022-11-29 19:37:00,,0818.4,5.00,0.00,21.5,21.1,00.0,30.4,23.4,10.9,0000.0,0001.95,0003.18,0001.61
2022-11-29 19:38:00,,0818.4,5.01,0.00,21.5,20.7,00.0,30.4,23.3,10.9,0000.0,0001.95,0003.27,0001.62
2022-11-29 19:39:00,,0818.3,5.00,0.00,21.5,20.4,00.0,30.4,23.2,10.8,0000.0,0001.93,0003.24,0001.62
2022-11-29 19:40:00,,0818.4,4.99,0.00,21.5,20.2,00.0,30.4,23.2,10.8,0000.0,0001.95,0003.27,0001.63
2022-11-29 19:41:00,,0818.4,5.00,0.00,21.4,20.0,00.0,30.4,23.1,10.8,0000.0,0001.97,0003.26,0001.64
2022-11-29 19:42:00,,0818.4,5.01,0.00,21.4,19.8,00.0,30.4,23.0,10.8,0000.0,0002.00,0003.25,0001.66
2022-11-29 19:43:00,,0818.4,5.01,0.00,21.4,19.7,00.0,30.4,23.0,10.8,0000.0,0002.00,0003.09,0001.66
2022-11-29 19:44:00,,0818.5,5.00,0.00,21.3,19.7,00.0,30.4,23.0,10.9,0000.0,0002.02,0003.10,0001.68
2022-11-29 19:45:00,,0818.5,5.00,0.00,21.3,19.7,00.0,30.4,22.9,10.9,0000.0,0002.04,0003.14,0001.71
2022-11-29 19:46:00,,0818.4,5.00,0.00,21.3,19.6,00.0,30.3,22.9,10.9,0000.0,0002.06,0003.15,0001.73
2022-11-29 19:47:00,,0818.4,4.99,0.00,21.3,19.5,00.0,30.3,22.9,11.0,0000.0,0002.11,0003.24,0001.76
2022-11-29 19:48:00,,0818.5,4.99,0.00,21.2,19.5,00.0,30.3,22.8,11.0,0000.0,0002.14,0003.27,0001.78
2022-11-29 19:49:00,,0818.5,5.00,0.00,21.2,19.4,00.0,30.3,22.8,11.0,0000.0,0002.19,0003.36,0001.80
2022-11-29 19:50:00,,0818.6,5.00,0.00,21.2,19.6,00.0,30.3,22.8,11.0,0000.0,0002.24,0003.42,0001.82
2022-11-29 19:51:00,,0818.6,5.02,0.00,21.3,20.9,00.0,30.2,23.1,11.0,0000.0,0002.29,0003.53,0001.84
2022-11-29 19:52:00,,0818.6,4.99,0.00,21.4,21.8,00.0,30.2,23.4,11.0,0000.0,0002.29,0003.49,0001.86
2022-11-29 19:53:00,,0818.5,4.99,0.00,21.4,21.4,00.0,30.3,23.4,10.9,0000.0,0002.29,0003.52,0001.87
2022-11-29 19:54:00,,0818.5,5.00,0.00,21.4,21.0,00.0,30.3,23.3,10.9,0000.0,0002.32,0004.10,0001.90
2022-11-29 19:55:00,,0818.4,5.00,0.00,21.4,20.6,00.0,30.3,23.2,10.9,0000.0,0002.36,0004.41,0001.90
2022-11-29 19:56:00,,0818.4,5.00,0.00,21.4,20.3,00.0,30.3,23.1,11.0,0000.0,0002.41,0004.54,0001.90
2022-11-29 19:57:00,,0818.4,5.00,0.00,21.4,19.9,00.0,30.3,23.0,11.0,0000.0,0002.44,0004.76,0001.91
2022-11-29 19:58:00,,0818.4,5.01,0.00,21.3,19.7,00.0,30.3,22.9,11.1,0000.0,0002.46,0004.84,0001.92
2022-11-29 19:59:00,,0818.4,5.01,0.00,21.3,19.6,00.0,30.3,22.8,11.1,0000.0,0002.46,0004.81,0001.93
